This demonstration page uses our WeatherBlox Daily Observations layout. Learn more.

39.92423, -83.80882

Hourly Observations for May 8, 2017

Temp ( °F °C ) Dew Point ( °F °C ) Humidity (%) Winds ( mph kmh ) Pressure ( in mb ) Visibility ( mi km ) Precip ( " mm )
12:56 am 00:56 Clear 39 3.9 24 -4.4 55 55 NW 7 11 30.02 1017 10 16.0934 0 0
1:56 am 01:56 Clear 37 2.8 24 -4.4 59 59 NW 6 9 30.03 1017 10 16.0934 0 0
2:56 am 02:56 Clear 34 1.1 27 -2.8 76 76 WNW 6 9 30.04 1017 10 16.0934 0 0
3:56 am 03:56 Clear 34 1.1 26 -3.3 73 73 W 6 9 30.04 1017 10 16.0934 0 0
4:56 am 04:56 Clear 32 0 26 -3.3 79 79 W 7 11 30.06 1018 10 16.0934 0 0
5:56 am 05:56 Clear 32 0 24 -4.4 73 73 WNW 7 11 30.08 1019 10 16.0934 0 0
6:56 am 06:56 Sunny 33 0.6 23 -5 66 66 NW 5 7 30.09 1019 10 16.0934 0 0
7:56 am 07:56 Sunny 37 2.8 25 -3.9 62 62 NW 6 9 30.11 1020 10 16.0934 0 0
8:56 am 08:56 Sunny 42 5.6 25 -3.9 51 51 WNW 5 7 30.12 1020 10 16.0934 0 0
9:56 am 09:56 Sunny 45 7.2 27 -2.8 49 49 WNW 9 15 30.12 1020 10 16.0934 0 0
10:56 am 10:56 Sunny 48 8.9 22 -5.6 36 36 NW 13 20 30.13 1020 10 16.0934 0 0
11:56 am 11:56 Sunny 52 11.1 25 -3.9 35 35 WNW 15 24 30.14 1021 10 16.0934 0 0
12:56 pm 12:56 Sunny 54 12.2 27 -2.8 35 35 WNW 18 30 30.13 1020 10 16.0934 0 0
1:56 pm 13:56 Sunny 57 13.9 27 -2.8 32 32 NW 16 26 30.11 1020 10 16.0934 0 0
2:56 pm 14:56 Sunny 57 13.9 29 -1.7 34 34 WNW 12 19 30.1 1019 10 16.0934 0 0
3:56 pm 15:56 Sunny 59 15 29 -1.7 32 32 NW 13 20 30.07 1018 10 16.0934 0 0
4:56 pm 16:56 Sunny 60 15.6 31 -0.6 33 33 WNW 15 24 30.05 1018 10 16.0934 0 0
5:56 pm 17:56 Sunny 59 15 29 -1.7 32 32 W 14 22 30.05 1018 10 16.0934 0 0
6:56 pm 18:56 Sunny 59 15 28 -2.2 31 31 NW 12 19 30.04 1017 10 16.0934 0 0
7:56 pm 19:56 Sunny 56 13.3 31 -0.6 39 39 NW 6 9 30.03 1017 10 16.0934 0 0
8:56 pm 20:56 Clear 55 12.8 30 -1.1 38 38 Calm 30.02 1017 10 16.0934 0 0
9:56 pm 21:56 Clear 50 10 39 3.9 66 66 W 3 6 30.03 1017 10 16.0934 0 0
10:56 pm 22:56 Mostly Cloudy 51 10.6 40 4.4 66 66 Calm 30.03 1017 10 16.0934 0 0
11:56 pm 23:56 Mostly Cloudy 50 10 42 5.6 74 74 Calm 30.02 1017 10 16.0934 0 0

Powered by AerisWeather